sat.trackr.live / text

‹ back to catalog

STARLINK-4218

NORAD 53025 · 2022-076AR

PAYLOAD ACTIVE UNKNOWN

§ Identity

Operator
Country
US
Launch date
2022-07-07
Launch site
AFETR
Launch vehicle
Mass (kg)
RCS (m²)

Purposes: comms

External: N2YO · Heavens-Above · Gunter

§ Orbital elements

Epoch: 2026-09-19T16:29:23.360352Z

Period
93.90 min
Inclination
53.1620°
Eccentricity
0.0001402
Mean motion
15.33542491 rev/d
Perigee alt
464.3 km
Apogee alt
466.2 km
Semi-major
6,843.4 km
B*
7.9018e-7
RAAN
285.7073°
Arg perigee
80.0133°
Mean anomaly
280.1028°
Rev number
23,237

§ Raw data

STARLINK-42181 53025U 22076AR  26262.68707593 -.00000347  00000+0  79018-6 0  99902 53025  53.1620 285.7073 0001402  80.0133 280.1028 15.33542491232373

JSON: /api/v1/satellites/53025 · /tle

For live sub-satellite position, see the globe view (requires WebGL).

§ Visibility from observer

Set your observer location to see the next 7 days of passes ≥ 10°. The values pass through the URL so the page stays shareable.

No JS? Fill the form by hand. The geolocation button needs JavaScript.